Retour au catalogue

QIANFAN-65

ActifCommunicationsPO
NORAD 62795·PAYLOAD·🇨🇳 China

Lancé Jan 23, 2025 depuis Taiyuan Satellite Launch Center

Loading…

Prochains Passages (prochaines 24 heures)

TLE

FraisSource: Space-Track

Époque: Sep 14, 2026, 12:58 UTC

1 62795U 25016L   26257.54085694  .00000026  00000-0  22269-4 0  9999
2 62795  88.9652  74.3796 0012070 266.0869  93.8902 13.51023379 84481

Suivez QIANFAN-65 en temps réel avec AllMySat

Download on the App Store